This is the latest recevied weather packets stored in our database for station/object W1LBM. If no packets are shown the sender has not sent any weather packets the latest 10 day(s).
| Time | Temp. | Humidity | Pressure | Rain* | Wind** | Luminosity | Snow |
|---|---|---|---|---|---|---|---|
| 1777980241 | 12.22° C | 87% | 1014.2 hPa | 0 mm | - | 68 W/m² | - |
| 1777979936 | 12.22° C | 87% | 1014.1 hPa | 0 mm | - | 72 W/m² | - |
| 1777979631 | 12.22° C | 88% | 1013.8 hPa | 0 mm | - | 102 W/m² | - |
| 1777979328 | 11.67° C | 88% | 1013.9 hPa | 0 mm | - | 69 W/m² | - |
| 1777979025 | 11.67° C | 89% | 1013.9 hPa | 0 mm | - | 82 W/m² | - |
| 1777978721 | 11.67° C | 89% | 1014 hPa | 0 mm | - | 106 W/m² | - |
| 1777978418 | 11.67° C | 90% | 1014 hPa | 0 mm | - | 96 W/m² | - |
| 1777978114 | 11.11° C | 91% | 1013.8 hPa | 0 mm | - | 80 W/m² | - |
| 1777977812 | 10.56° C | 93% | 1013.8 hPa | 0 mm | - | 69 W/m² | - |
| 1777977507 | 10.56° C | 95% | 1013.7 hPa | 0 mm | - | 60 W/m² | - |
| 1777977206 | 10° C | 96% | 1013.8 hPa | 0 mm | - | 47 W/m² | - |
| 1777976903 | 10° C | 96% | 1013.9 hPa | 0 mm | - | 41 W/m² | - |
| 1777976600 | 10° C | 96% | 1013.8 hPa | 0 mm | - | 37 W/m² | - |
| 1777976295 | 10° C | 97% | 1013.5 hPa | 0 mm | - | 32 W/m² | - |
| 1777975990 | 9.44° C | 97% | 1013.6 hPa | 0 mm | - | 27 W/m² | - |
| 1777975686 | 9.44° C | 97% | 1013.6 hPa | 0 mm | - | 22 W/m² | - |
| 1777975383 | 9.44° C | 97% | 1013.6 hPa | 0 mm | - | 17 W/m² | - |
| 1777975079 | 9.44° C | 96% | 1013.6 hPa | 0 mm | - | 14 W/m² | - |
| 1777974777 | 9.44° C | 96% | 1013.8 hPa | 0 mm | - | 10 W/m² | - |
| 1777974472 | 9.44° C | 96% | 1013.6 hPa | 0 mm | - | 7 W/m² | - |
| 1777974169 | 9.44° C | 96% | 1013.8 hPa | 0 mm | - | 4 W/m² | - |
| 1777973865 | 9.44° C | 95% | 1013.8 hPa | 0 mm | - | 3 W/m² | - |
| 1777973563 | 9.44° C | 95% | 1013.8 hPa | 0 mm | - | 2 W/m² | - |
| 1777973259 | 9.44° C | 95% | 1013.8 hPa | 0 mm | - | 1 W/m² | - |
| 1777972958 | 9.44° C | 95% | 1013.7 hPa | 0 mm | - | 0 W/m² | - |
* Rain latest hour (hover to see other rain measurements)
** Current wind speed in m/s (hover to see current wind gust speed)